#timestamp,LO_Frequency,Hit,Temp,Hum 
1479826815.7,286047596.9,N,0.0,0.0
1479826835.6,286047596.5,N,0.0,0.0
1479826855.4,286047597.0,N,0.0,0.0
1479826875.2,286047597.7,N,0.0,0.0
1479826895.1,286047599.2,N,0.0,0.0
1479826896.0,286047599.2,N,0.0,0.0
1479826915.8,286047597.3,N,0.0,0.0
1479826935.7,286047597.9,N,0.0,0.0
1479826955.5,286047596.4,N,0.0,0.0
1479826975.3,286047594.3,N,0.0,0.0
1479826995.2,286047592.6,N,0.0,0.0
1479827015.9,286047593.2,N,0.0,0.0
1479827035.7,286047590.3,N,0.0,0.0
1479827055.6,286047590.2,N,0.0,0.0
1479827075.4,286047590.3,N,0.0,0.0
1479827095.3,286047591.0,N,0.0,0.0
1479827115.1,286047591.2,N,0.0,0.0
1479827116.0,286047591.2,N,0.0,0.0
1479827135.8,286047591.2,N,0.0,0.0
1479827155.7,286047590.9,N,0.0,0.0
1479827175.5,286047590.9,N,0.0,0.0
1479827195.4,286047589.0,N,0.0,0.0
1479827215.2,286047590.0,N,0.0,0.0
1479827235.0,286047589.6,N,0.0,0.0
1479827235.9,286047589.6,N,0.0,0.0
1479827255.8,286047589.5,N,0.0,0.0
1479827275.6,286047586.9,N,0.0,0.0
1479827295.4,286047587.4,N,0.0,0.0
1479827315.3,286047589.5,N,0.0,0.0
1479827335.1,286047586.9,N,0.0,0.0
1479827355.9,286047589.5,N,0.0,0.0
1479827375.7,286047587.0,N,0.0,0.0
1479827395.5,286047587.3,N,0.0,0.0
1479827415.4,286047587.3,N,0.0,0.0
1479827435.2,286047588.1,N,0.0,0.0
1479827455.1,286047585.6,N,0.0,0.0
1479827456.0,286047585.6,N,0.0,0.0
1479827475.8,286047586.8,N,0.0,0.0
1479827495.6,286047584.0,N,0.0,0.0
1479827515.5,286047584.6,N,0.0,0.0
1479827535.3,286047582.3,N,0.0,0.0
1479827555.1,286047582.3,N,0.0,0.0
1479827575.9,286047584.9,N,0.0,0.0
1479827595.7,286047585.0,N,0.0,0.0
1479827615.6,286047582.5,N,0.0,0.0
1479827635.4,286047582.6,N,0.0,0.0
1479827655.2,286047582.3,N,0.0,0.0
1479827675.1,286047582.9,N,0.0,0.0
1479827676.0,286047582.9,N,0.0,0.0
1479827695.8,286047585.1,N,0.0,0.0
1479827715.7,286047582.3,N,0.0,0.0
1479827735.5,286047580.5,N,0.0,0.0
1479827755.3,286047580.9,N,0.0,0.0
1479827775.2,286047581.4,N,0.0,0.0
1479827795.0,286047579.3,N,0.0,0.0
1479827795.9,286047579.3,N,0.0,0.0
1479827815.8,286047579.0,N,0.0,0.0
1479827835.6,286047582.0,N,0.0,0.0
1479827855.4,286047579.2,N,0.0,0.0
1479827875.3,286047579.3,N,0.0,0.0
1479827895.1,286047579.5,N,0.0,0.0
1479827915.8,286047580.0,N,0.0,0.0
1479827935.7,286047580.0,N,0.0,0.0
1479827955.5,286047577.9,N,0.0,0.0
1479827975.4,286047576.1,N,0.0,0.0
1479827995.2,286047577.9,N,0.0,0.0
1479828015.0,286047577.9,N,0.0,0.0
1479828015.9,286047577.9,N,0.0,0.0
1479828035.8,286047577.9,N,0.0,0.0
1479828055.6,286047578.1,N,0.0,0.0
1479828075.4,286047577.6,N,0.0,0.0
1479828095.3,286047578.7,N,0.0,0.0
1479828115.1,286047575.9,N,0.0,0.0
1479828135.9,286047576.5,N,0.0,0.0
1479828155.7,286047576.0,N,0.0,0.0
1479828175.5,286047576.8,N,0.0,0.0
1479828195.4,286047577.2,N,0.0,0.0
1479828215.2,286047577.0,N,0.0,0.0
1479828235.0,286047576.3,N,0.0,0.0
1479828236.0,286047576.3,N,0.0,0.0
1479828255.8,286047576.4,N,0.0,0.0
1479828275.6,286047576.7,N,0.0,0.0
1479828295.5,286047577.1,N,0.0,0.0
1479828315.3,286047577.2,N,0.0,0.0
1479828335.1,286047574.5,N,0.0,0.0
1479828355.9,286047574.5,N,0.0,0.0
1479828375.7,286047574.5,N,0.0,0.0
1479828395.6,286047576.7,N,0.0,0.0
1479828415.4,286047575.0,N,0.0,0.0
1479828435.2,286047575.2,N,0.0,0.0
1479828455.1,286047575.1,N,0.0,0.0
1479828456.0,286047575.1,N,0.0,0.0
1479828475.8,286047572.7,N,0.0,0.0
1479828495.6,286047575.6,N,0.0,0.0
1479828515.5,286047575.0,N,0.0,0.0
1479828535.3,286047574.8,N,0.0,0.0
1479828555.2,286047577.2,N,0.0,0.0
1479828575.9,286047576.6,N,0.0,0.0
1479828595.7,286047576.9,N,0.0,0.0
1479828615.6,286047577.0,N,0.0,0.0
1479828635.4,286047575.0,N,0.0,0.0
1479828655.2,286047573.0,N,0.0,0.0
1479828675.1,286047573.7,N,0.0,0.0
1479828676.0,286047573.7,N,0.0,0.0
1479828695.8,286047570.9,N,0.0,0.0
1479828715.7,286047573.5,N,0.0,0.0
1479828735.5,286047573.9,N,0.0,0.0
1479828755.3,286047570.9,N,0.0,0.0
1479828775.2,286047573.8,N,0.0,0.0
1479828795.0,286047572.9,N,0.0,0.0
1479828795.9,286047572.9,N,0.0,0.0
1479828815.8,286047572.6,N,0.0,0.0
1479828835.6,286047575.5,N,0.0,0.0
1479828855.4,286047575.1,N,0.0,0.0
1479828875.3,286047575.0,N,0.0,0.0
1479828895.1,286047574.4,N,0.0,0.0
1479828915.9,286047574.6,N,0.0,0.0
1479828935.7,286047574.8,N,0.0,0.0
1479828955.5,286047575.0,N,0.0,0.0
1479828975.4,286047574.3,N,0.0,0.0
1479828995.2,286047574.3,N,0.0,0.0
1479829015.0,286047574.1,N,0.0,0.0
1479829015.9,286047574.1,N,0.0,0.0
1479829035.8,286047576.5,N,0.0,0.0
1479829055.6,286047576.2,N,0.0,0.0
1479829075.5,286047578.3,N,0.0,0.0
1479829095.3,286047577.7,N,0.0,0.0
1479829115.1,286047577.7,N,0.0,0.0
1479829135.9,286047580.1,N,0.0,0.0
1479829155.7,286047579.2,N,0.0,0.0
1479829175.6,286047578.9,N,0.0,0.0
1479829195.4,286047581.6,N,0.0,0.0
1479829215.2,286047581.2,N,0.0,0.0
1479829235.1,286047580.7,N,0.0,0.0
1479829236.0,286047580.7,N,0.0,0.0
1479829255.8,286047580.7,N,0.0,0.0
1479829275.6,286047580.5,N,0.0,0.0
1479829295.5,286047582.8,N,0.0,0.0
1479829315.3,286047583.4,N,0.0,0.0
1479829335.2,286047583.4,N,0.0,0.0
1479829355.9,286047583.2,N,0.0,0.0
1479829375.7,286047580.9,N,0.0,0.0
1479829395.6,286047580.6,N,0.0,0.0
1479829415.4,286047583.6,N,0.0,0.0
1479829435.2,286047584.7,N,0.0,0.0
1479829455.1,286047584.7,N,0.0,0.0
1479829456.0,286047584.7,N,0.0,0.0
1479829475.8,286047582.5,N,0.0,0.0
1479829495.7,286047585.1,N,0.0,0.0
1479829515.5,286047584.7,N,0.0,0.0
1479829535.3,286047582.2,N,0.0,0.0
1479829555.2,286047582.4,N,0.0,0.0
1479829575.0,286047582.5,N,0.0,0.0
1479829575.9,286047582.5,N,0.0,0.0
1479829595.8,286047584.7,N,0.0,0.0
1479829615.6,286047584.0,N,0.0,0.0
1479829635.4,286047583.8,N,0.0,0.0
1479829655.3,286047583.7,N,0.0,0.0
1479829675.1,286047586.4,N,0.0,0.0
1479829695.8,286047586.3,N,0.0,0.0
1479829715.7,286047586.5,N,0.0,0.0
1479829735.5,286047585.9,N,0.0,0.0
1479829755.4,286047585.4,N,0.0,0.0
1479829775.2,286047585.3,N,0.0,0.0
1479829795.0,286047588.3,N,0.0,0.0
1479829795.9,286047588.3,N,0.0,0.0
1479829815.8,286047588.4,N,0.0,0.0
1479829835.6,286047588.4,N,0.0,0.0
1479829855.4,286047585.3,N,0.0,0.0
1479829875.3,286047585.4,N,0.0,0.0
1479829895.1,286047587.9,N,0.0,0.0
1479829915.9,286047587.9,N,0.0,0.0
1479829935.7,286047587.9,N,0.0,0.0
1479829955.5,286047588.2,N,0.0,0.0
1479829975.4,286047587.5,N,0.0,0.0
1479829995.2,286047590.0,N,0.0,0.0
1479830015.1,286047589.7,N,0.0,0.0
1479830016.0,286047589.7,N,0.0,0.0
1479830035.8,286047589.6,N,0.0,0.0
1479830055.6,286047587.3,N,0.0,0.0
1479830075.5,286047587.1,N,0.0,0.0
1479830095.3,286047590.0,N,0.0,0.0
1479830115.1,286047589.2,N,0.0,0.0
1479830135.9,286047591.6,N,0.0,0.0
1479830155.7,286047591.5,N,0.0,0.0
1479830175.6,286047591.4,N,0.0,0.0
1479830195.4,286047591.0,N,0.0,0.0
1479830215.2,286047590.9,N,0.0,0.0
1479830235.1,286047590.4,N,0.0,0.0
1479830236.0,286047590.4,N,0.0,0.0
1479830255.8,286047590.3,N,0.0,0.0
1479830275.7,286047590.5,N,0.0,0.0
1479830295.5,286047590.3,N,0.0,0.0
1479830315.3,286047590.1,N,0.0,0.0
1479830335.2,286047590.1,N,0.0,0.0
1479830355.0,286047593.1,N,0.0,0.0
1479830355.9,286047593.1,N,0.0,0.0
1479830375.8,286047592.8,N,0.0,0.0
1479830395.6,286047592.5,N,0.0,0.0
